GORIZONT 25 1 21922U 92017A 12039.40177963 -.00000299 00000-0 10000-3 0 5897 2 21922 13.2431 32.1075 0029562 331.8176 28.0905 0.99847635 72591 GORIZONT 26 1 22041U 92043A 12040.40076655 -.00000196 00000-0 10000-3 0 2104 2 22041 13.1512 33.5301 0029154 127.7350 232.6023 0.99241925 71473 GORIZONT 27 1 22245U 92082A 12040.20064227 .00000045 00000-0 10000-3 0 7425 2 22245 13.0668 34.2826 0012760 263.4855 96.4395 1.00209134 74631 GORIZONT 28 1 22880U 93069A 12039.21319809 -.00000052 00000-0 10000-3 0 5892 2 22880 12.6785 37.5247 0034670 23.4323 336.8055 0.99657287 66898 GORIZONT 29 1 22907U 93072A 12039.63097698 .00000131 00000-0 10000-3 0 9544 2 22907 12.6468 37.4847 0011479 239.3136 120.6530 1.00134069 66701 GORIZONT 30 1 23108U 94030A 12040.42638110 -.00000353 00000-0 10000-3 0 7659 2 23108 12.5223 38.5963 0001456 5.5228 354.5556 1.00373050 64937 GORIZONT 31 1 23775U 96005A 12035.36212923 -.00000327 00000-0 10000-3 0 2241 2 23775 11.5890 44.1623 0019512 85.2546 275.0444 0.99898741 58642 GORIZONT 32 1 23880U 96034A 12040.15872985 .00000138 00000-0 10000-3 0 9407 2 23880 11.4655 44.9759 0008601 247.6907 301.5496 1.00159388 57536 GORIZONT 33 1 26372U 00029A 12039.25368137 .00000068 00000-0 10000-3 0 9124 2 26372 8.8590 53.8305 0003718 333.8233 26.2843 1.00240966 42852